Flag for Japan Weather past 2 weeks in Okayama, Japan

Now
48 °F

Partly sunny.


Feels Like: 48 °F
Forecast: 36 / 69 °F
Wind: 2 mph from West

Location: Takamatsu

Current Time: Apr 22, 2015 at 6:56:58 AM

Latest Report: Apr 22, 2015 at 6:00 AM


Visibility: 9 mi

Pressure: 30.06 "Hg

Humidity: 91%

Dew point: 45 °F

Location of OkayamaLocation

Historic Weather in Okayama — Graph

°F

Okayama temperature yesterday

Maximum temperature yesterday: 66 °F (at 3:00 PM)
Minimum temperature yesterday: 54 °F (at 6:00 AM)
Average temperature yesterday: 58 °F

Past Weeks' High & Low Weather Summary

 TemperatureHumidityPressure
High72 °F (Apr 16, 1:00 PM)97% (Apr 11, 2:00 AM)30.38 "Hg (Apr 11, 2:00 AM)
Low42 °F (Apr 8, 5:00 AM)22% (Apr 17, 4:00 PM)29.50 "Hg (Apr 20, 1:00 PM)
Average56 °F72%30.02 "Hg
* Reported Apr 7 5:00 AM — Apr 22 5:00 AM, Okayama, Weather by CustomWeather, © 2015

Note: Actual official high and low records may vary slightly from our data, if they occured in-between our weather recording intervals... More about our weather records

Advertising

Okayama weather history for previous 24 hours

 ConditionsComfort  
Time TempWeatherWind HumidityBarometerVisibility
5:00 AM
Wed, Apr 22
48 °FCool.2 mph91%30.04 "HgN/A
4:00 AM48 °FCool.2 mph92%30.03 "HgN/A
3:00 AM49 °FPassing clouds.1 mph91%30.03 "Hg12 mi
2:00 AM50 °FCool.2 mph90%30.04 "HgN/A
1:00 AM51 °FCool.3 mph84%30.03 "HgN/A
12:00 AM52 °FCool.2 mph84%30.03 "HgN/A
11:00 PM
Tue, Apr 21
54 °FCool.1 mph85%30.02 "HgN/A
10:00 PM56 °FCool.2 mph76%30.01 "HgN/A
9:00 PM57 °FPassing clouds.1 mph73%30.01 "Hg12 mi
8:00 PM59 °FCool.3 mph64%29.99 "HgN/A
7:00 PM60 °FCool.3 mph63%29.96 "HgN/A
6:00 PM61 °FOvercast.6 mph59%29.96 "Hg16 mi
5:00 PM64 °FMild.5 mph50%29.94 "HgN/A
4:00 PM65 °FMild.3 mph49%29.92 "HgN/A
3:00 PM66 °FOvercast.6 mph48%29.92 "Hg12 mi
2:00 PM64 °FMild.7 mph46%29.93 "HgN/A
1:00 PM62 °FRefreshingly cool.7 mph54%29.94 "HgN/A
11:00 AM58 °FCool.5 mph63%29.94 "HgN/A
10:00 AM58 °FCool.6 mph66%29.93 "HgN/A
9:00 AM56 °FOvercast.5 mph68%29.94 "Hg16 mi
8:00 AM55 °FCool.6 mph71%29.93 "HgN/A
7:00 AM54 °FCool.6 mph74%29.90 "HgN/A
6:00 AM54 °FOvercast.6 mph76%29.87 "Hg19 mi
Weather by CustomWeather, © 2015

See weather overviewHow to use our weather pages